This is the latest recevied weather packets stored in our database for station/object DL9NEE-10. If no packets are shown the sender has not sent any weather packets the latest 10 day(s).
| Time | Temp. | Humidity | Pressure | Rain* | Wind** | Luminosity | Snow |
|---|---|---|---|---|---|---|---|
| 1777523677 | 7.22° C | 39% | 1029.9 hPa | - | - | - | - |
| 1777522777 | 6.67° C | 40% | 1029.8 hPa | - | - | - | - |
| 1777521877 | 7.22° C | 39% | 1029.7 hPa | - | - | - | - |
| 1777520976 | 7.22° C | 39% | 1029.6 hPa | - | - | - | - |
| 1777520076 | 7.78° C | 38% | 1029.5 hPa | - | - | - | - |
| 1777519176 | 7.78° C | 38% | 1029.3 hPa | - | - | - | - |
| 1777518275 | 7.78° C | 37% | 1029.3 hPa | - | - | - | - |
| 1777517375 | 8.33° C | 37% | 1029.1 hPa | - | - | - | - |
| 1777516477 | 8.33° C | 37% | 1029.1 hPa | - | - | - | - |
| 1777515575 | 8.33° C | 36% | 1029 hPa | - | - | - | - |
| 1777514675 | 8.89° C | 36% | 1029.1 hPa | - | - | - | - |
| 1777512874 | 9.44° C | 35% | 1029 hPa | - | - | - | - |
| 1777511974 | 9.44° C | 35% | 1029 hPa | - | - | - | - |
| 1777511074 | 10° C | 35% | 1029 hPa | - | - | - | - |
| 1777510174 | 10° C | 34% | 1028.9 hPa | - | - | - | - |
| 1777509274 | 10° C | 34% | 1029 hPa | - | - | - | - |
| 1777508374 | 10.56° C | 34% | 1028.8 hPa | - | - | - | - |
| 1777507474 | 10.56° C | 34% | 1028.7 hPa | - | - | - | - |
| 1777506574 | 10.56° C | 34% | 1028.6 hPa | - | - | - | - |
| 1777505673 | 11.11° C | 33% | 1028.4 hPa | - | - | - | - |
| 1777504773 | 11.11° C | 33% | 1028.2 hPa | - | - | - | - |
| 1777503873 | 11.67° C | 33% | 1028.2 hPa | - | - | - | - |
| 1777502973 | 11.67° C | 33% | 1028.1 hPa | - | - | - | - |
| 1777502073 | 11.67° C | 32% | 1027.9 hPa | - | - | - | - |
| 1777501173 | 12.22° C | 32% | 1027.8 hPa | - | - | - | - |
* Rain since midnight (hover to see other rain measurements)
** Current wind speed in m/s (hover to see current wind gust speed)